User: anonymous   Login
Location: Unspecified
(0.0000°N, 0.0000°E)
Time: 16:38:00
(UTC+00:00)
Language:

COSMOS-2409 - Orbit

View from above orbital plane
View from above orbital plane
View from above satellite
View from above satellite

Ground track
Ground track

The orbit data is extracted from the following two-line orbital elements,

1 28420U 04037B   17204.89543361 +.00000002 +00000-0 -57944-4 0  9999
2 28420 082.4825 203.6662 0012947 194.3505 165.7215 12.45270264583277
Epoch (UTC): 23 July 2017 21:29:25
Eccentricity: 0.0012947
inclination: 82.4825°
perigee height: 1474 km
apogee height: 1494 km
right ascension of ascending node: 203.6662°
argument of perigee: 194.3505°
revolutions per day: 12.45270264
mean anomaly at epoch: 165.7215°
orbit number at epoch: 58327

The dashed part of the orbit path shows where the satellite is in the earth's shadow,  

DLR